[[{"header":{"parameterUnit":"m.s-1","parameterCategory":2,"la1":30.2991,"la2":30.254,"lo1":-89.0895,"lo2":-89.0444,"dy":0.0017,"dx":0.0017,"nx":28,"ny":28,"refTime":"2026-02-02T03:00:00:Z","depth":"0","parameterNumber":2,"parameterNumberName":"U-component_of_CURRENTS"},"data":[0,0,0,0,0,0,0,0,0,0,0,0,0,0,0,0,0,0,0,0,0,0,0,0,0,0,0,0,0,0,0,0,0,0,0,0,0,0,0,0,0,0,0,0,0,0,0,0,0,0,0,0,0,0,0,0,0,0,-0.1834,-0.1835,0,-0.1824,-0.1822,-0.182,-0.1812,-0.1814,-0.1816,-0.1818,-0.1781,-0.1778,-0.1775,0,0,0,0,0,0,0,0,0,0,0,0,0,-0.1559,-0.1564,-0.1833,-0.1836,-0.1838,-0.1824,-0.1822,-0.1819,-0.1812,-0.1814,-0.1817,-0.1819,-0.1782,-0.1778,-0.1775,0,0,0,0,0,0,0,0,0,0,0,0,0,-0.1604,-0.1565,-0.1833,-0.185,-0.1853,-0.1824,-0.1821,-0.1818,-0.1811,-0.1814,-0.1817,-0.182,-0.1783,-0.1779,-0.1774,-0.1683,0,0,-0.1761,-0.1759,0,0,0,0,0,0,0,0,-0.1602,-0.1612,-0.1845,-0.1849,-0.1853,-0.1843,-0.1712,-0.178,-0.181,-0.1802,-0.1818,-0.1822,-0.1812,-0.1806,-0.1763,-0.1681,-0.168,-0.176,-0.1757,-0.1756,-0.1754,0,0,0,0,0,0,0,-0.1599,-0.1611,-0.1805,-0.1848,-0.1852,-0.1761,-0.1771,-0.1722,-0.177,-0.1803,-0.1808,-0.1844,-0.1811,-0.1767,-0.1763,-0.1679,-0.176,-0.1756,-0.1754,-0.1752,-0.1547,-0.1544,0,0,0,0,0,0,-0.1661,-0.161,-0.1806,-0.1808,-0.176,-0.1767,-0.1776,-0.1823,-0.1771,-0.1774,-0.1841,-0.1844,-0.1773,-0.1768,-0.1761,-0.1716,-0.1756,-0.1751,-0.1749,-0.1549,-0.1546,-0.1543,0,0,0,0,0,0,-0.1655,-0.1679,-0.1807,-0.1725,-0.1739,-0.1773,-0.1822,-0.1822,-0.1821,-0.1806,-0.1803,-0.185,-0.1775,-0.1768,-0.1697,-0.1713,-0.1749,-0.1745,-0.1553,-0.1548,-0.1545,-0.1583,0,0,0,0,0,0,-0.1647,-0.1677,-0.1691,-0.1731,-0.1747,-0.1804,-0.1822,-0.1821,-0.1848,-0.1851,-0.1811,-0.1808,-0.1777,-0.1703,-0.1692,-0.1707,-0.1742,-0.1556,-0.1551,-0.1546,-0.1585,-0.1581,-0.1577,0,0,0,0,0,-0.1637,-0.167,-0.1691,-0.1715,-0.178,-0.1806,-0.1801,-0.1817,-0.1846,-0.1827,-0.1779,-0.1812,-0.1665,-0.1696,-0.1684,-0.1699,-0.1559,-0.1552,-0.1546,-0.1587,-0.1582,-0.1577,0,0,0,0,0,0,-0.1545,-0.1676,-0.17,-0.1767,-0.1792,-0.1815,-0.18,-0.1833,-0.1776,-0.177,-0.1758,-0.1747,-0.1704,-0.1668,-0.1704,-0.1616,-0.1624,-0.1615,-0.1659,-0.1654,-0.165,-0.1664,-0.1738,0,0,0,0,0,-0.154,-0.1593,-0.1688,-0.172,-0.1746,-0.1772,-0.1779,-0.1799,-0.1786,-0.1767,-0.1747,-0.17,-0.1656,-0.1632,-0.158,-0.1515,-0.1526,-0.1516,-0.1512,-0.1509,-0.1506,-0.1524,-0.1524,-0.1523,-0.1523,-0.1523,0,0,-0.1492,-0.1585,-0.1599,-0.1701,-0.171,-0.1742,-0.1777,-0.1795,-0.182,-0.1768,-0.1744,-0.1689,-0.1634,-0.1566,-0.1546,-0.1547,-0.1511,-0.1501,-0.15,-0.1498,-0.1518,-0.1519,-0.152,-0.1518,-0.1519,-0.152,0,0,-0.1429,-0.1525,-0.1536,-0.1594,-0.1665,-0.1699,-0.1728,-0.1762,-0.1774,-0.174,-0.1715,-0.1632,-0.159,-0.152,-0.1493,-0.1419,-0.1496,-0.1445,-0.1433,-0.1452,-0.1454,-0.1456,-0.1477,-0.1481,-0.1436,-0.1436,-0.1436,0,-0.1367,-0.1452,-0.1526,-0.1576,-0.1629,-0.1702,-0.1722,-0.1746,-0.1745,-0.1736,-0.1743,-0.1615,-0.1557,-0.148,-0.1449,-0.1415,-0.1465,-0.1472,-0.1455,-0.1456,-0.1458,-0.1479,-0.1483,-0.1437,-0.1437,-0.1437,-0.1437,0,-0.1377,-0.141,-0.1429,-0.1536,-0.1561,-0.1613,-0.1693,-0.1713,-0.175,-0.1751,-0.1695,-0.1582,-0.1498,-0.1483,-0.1446,-0.1419,-0.1465,-0.1465,-0.149,-0.1462,-0.1484,-0.1488,-0.1438,-0.1438,-0.1438,-0.1438,0,0,-0.1326,-0.1421,-0.1425,-0.1431,-0.1579,-0.1583,-0.1655,-0.1708,-0.171,-0.1709,-0.167,-0.1575,-0.1513,-0.147,-0.1412,-0.1415,-0.1442,-0.146,-0.146,-0.1519,-0.1532,-0.1506,-0.1508,-0.1496,-0.1496,-0.1497,-0.1548,0,-0.1316,-0.1386,-0.1441,-0.1441,-0.1477,-0.1574,-0.162,-0.1656,-0.1669,-0.1638,-0.1592,-0.1493,-0.1523,-0.1424,-0.1456,-0.1431,-0.1455,-0.143,-0.1514,-0.1515,-0.1529,-0.151,-0.1353,-0.1382,-0.1551,-0.1552,-0.1552,0,-0.1343,-0.1384,-0.1409,-0.141,-0.143,-0.1438,-0.1498,-0.1538,-0.1558,-0.156,-0.1511,-0.1438,-0.1388,-0.1399,-0.1455,-0.1471,-0.1505,-0.1519,-0.1521,-0.1486,-0.1495,-0.1428,-0.1382,-0.1365,-0.1558,-0.1557,-0.1557,0,-0.1306,-0.1346,-0.1361,-0.1398,-0.1434,-0.1427,-0.1462,-0.1494,-0.1504,-0.1462,-0.1433,-0.139,-0.1345,-0.1409,-0.1455,-0.1458,-0.156,-0.154,-0.156,-0.1559,-0.1424,-0.141,-0.1396,-0.1588,-0.1588,-0.1587,-0.1587,0,-0.1336,-0.1305,-0.1335,-0.1337,-0.1343,-0.1357,-0.1335,-0.139,-0.1377,-0.1333,-0.1359,-0.1306,-0.1365,-0.141,-0.1463,-0.1555,-0.1578,-0.1556,-0.1567,-0.1429,-0.1416,-0.1394,-0.1427,-0.1589,-0.1589,-0.1589,-0.1588,0,-0.1235,-0.1303,-0.1276,-0.1293,-0.1314,-0.1298,-0.1314,-0.1248,-0.1323,-0.1263,-0.123,-0.1272,-0.1325,-0.1414,-0.1478,-0.1551,-0.1574,-0.1629,-0.1469,-0.1459,-0.1398,-0.1438,-0.1497,-0.1459,-0.1602,-0.1601,-0.1601,0,-0.1171,-0.116,-0.1224,-0.12,-0.1186,-0.1194,-0.1175,-0.1245,-0.1199,-0.1225,-0.1179,-0.1196,-0.115,-0.1329,-0.142,-0.1508,-0.1568,-0.1469,-0.1392,-0.1372,-0.1425,-0.1488,-0.1455,-0.123,-0.1227,-0.1224,-0.1222,0,-0.1023,-0.1072,-0.1085,-0.1082,-0.1047,-0.1001,-0.0994,-0.0956,-0.0991,-0.0987,-0.0944,-0.0865,-0.1034,-0.1019,-0.1206,-0.1276,-0.1395,-0.1413,-0.142,-0.1155,-0.1192,-0.1167,-0.1241,-0.1198,-0.12,-0.1202,-0.1203,-0.1204,-0.0917,-0.0926,-0.0991,-0.0928,-0.0918,-0.0775,-0.0725,-0.0647,-0.0598,-0.0525,-0.062,-0.0508,-0.0619,-0.0802,-0.0936,-0.1117,-0.1212,-0.1092,-0.1152,-0.1226,-0.1152,-0.1186,-0.1143,-0.1145,-0.1146,-0.1148,-0.1149,0,-0.0767,-0.0837,-0.0794,-0.0818,-0.0724,-0.0724,-0.0596,-0.0496,-0.0385,-0.0214,-0.0192,-0.007,-0.0189,-0.0427,-0.0759,-0.0833,-0.0857,-0.09,-0.0908,-0.0892,-0.091,-0.085,-0.0707,-0.0707,-0.0707,-0.0707,-0.0707,-0.0707,-0.0714,-0.0727,-0.0709,-0.0636,-0.06,-0.0445,-0.0326,-0.0181,-0.0049,0.0228,0.0371,0.0428,0.0132,-0.0428,-0.0744,-0.0762,-0.0794,-0.0792,-0.09,-0.0855,-0.0876,-0.0896,-0.0844,-0.0701,-0.0702,-0.0767,-0.0767,-0.0768]},{"header":{"parameterUnit":"m.s-1","parameterCategory":2,"la1":30.2991,"la2":30.254,"lo1":-89.0895,"lo2":-89.0444,"dy":0.0017,"dx":0.0017,"nx":28,"ny":28,"refTime":"2026-02-02T03:00:00:Z","depth":"0","parameterNumber":3,"parameterNumberName":"V-component_of_CURRENTS"},"data":[0,0,0,0,0,0,0,0,0,0,0,0,0,0,0,0,0,0,0,0,0,0,0,0,0,0,0,0,0,0,0,0,0,0,0,0,0,0,0,0,0,0,0,0,0,0,0,0,0,0,0,0,0,0,0,0,0,0,0.0997,0.0995,0,0.1078,0.1082,0.1085,0.1231,0.1231,0.1231,0.1231,0.1425,0.143,0.1435,0,0,0,0,0,0,0,0,0,0,0,0,0,0.1132,0.113,0.0997,0.0995,0.0993,0.1078,0.1082,0.1086,0.1231,0.1231,0.1231,0.1231,0.1423,0.1429,0.1435,0,0,0,0,0,0,0,0,0,0,0,0,0,0.1157,0.113,0.0997,0.1054,0.1058,0.1077,0.1082,0.1087,0.1231,0.1231,0.1231,0.1231,0.1421,0.1429,0.1436,0.148,0,0,0.1459,0.1463,0,0,0,0,0,0,0,0,0.1155,0.1156,0.1048,0.105,0.1054,0.1119,0.1199,0.1214,0.1231,0.1196,0.1231,0.1231,0.1313,0.133,0.1385,0.149,0.1498,0.146,0.1465,0.1468,0.147,0,0,0,0,0,0,0,0.1153,0.1153,0.1059,0.1045,0.1049,0.113,0.1136,0.1205,0.1278,0.1199,0.1203,0.1165,0.132,0.1378,0.1391,0.1501,0.146,0.1467,0.1471,0.1474,0.1623,0.1622,0,0,0,0,0,0,0.1074,0.115,0.1056,0.1058,0.1073,0.1125,0.1133,0.1122,0.1275,0.1289,0.1165,0.1171,0.1365,0.1382,0.1398,0.142,0.1468,0.1475,0.1479,0.1624,0.1623,0.1622,0,0,0,0,0,0,0.1078,0.1067,0.1052,0.1082,0.1082,0.1118,0.1108,0.1123,0.1148,0.1242,0.1265,0.1166,0.1366,0.1387,0.1464,0.1429,0.1478,0.1485,0.1624,0.1623,0.1623,0.1488,0,0,0,0,0,0,0.1082,0.1069,0.1039,0.1077,0.1076,0.1053,0.1105,0.1123,0.1111,0.1121,0.125,0.1271,0.1367,0.1452,0.1471,0.1441,0.1491,0.1625,0.1624,0.1623,0.1493,0.1483,0.1474,0,0,0,0,0,0.1088,0.1026,0.1039,0.1025,0.1034,0.1049,0.1062,0.1108,0.111,0.1133,0.1223,0.1265,0.1457,0.1459,0.1481,0.1452,0.1626,0.1624,0.1623,0.1498,0.1485,0.1474,0,0,0,0,0,0,0.105,0.1033,0.1048,0.098,0.1006,0.1062,0.1056,0.1075,0.1165,0.1178,0.1277,0.1306,0.1342,0.1422,0.142,0.1491,0.154,0.1543,0.1437,0.1425,0.1416,0.1388,0.1498,0,0,0,0,0,0.1022,0.0996,0.0999,0.0952,0.0955,0.1002,0.1005,0.1043,0.1104,0.1143,0.1218,0.1302,0.136,0.1412,0.1481,0.1539,0.1559,0.1529,0.1519,0.151,0.1503,0.1519,0.1509,0.1618,0.1618,0.1618,0,0,0.1004,0.0972,0.0967,0.0944,0.0976,0.0973,0.1015,0.1017,0.1013,0.1148,0.1183,0.1258,0.136,0.1421,0.1445,0.1486,0.1481,0.1508,0.15,0.1498,0.1517,0.1506,0.1496,0.1617,0.1617,0.1617,0,0,0.0963,0.0923,0.0915,0.09,0.0895,0.0931,0.0909,0.096,0.0988,0.1026,0.1106,0.1194,0.1265,0.1376,0.1423,0.1405,0.1406,0.1378,0.1336,0.1351,0.1342,0.1334,0.1298,0.1288,0.14,0.14,0.1399,0,0.094,0.0886,0.0915,0.0875,0.0833,0.0893,0.0869,0.0904,0.0972,0.0997,0.1013,0.1151,0.1257,0.1335,0.1335,0.1385,0.1346,0.1369,0.1335,0.1328,0.1322,0.1288,0.1279,0.1393,0.1394,0.1394,0.1395,0,0.0871,0.083,0.0804,0.0785,0.0787,0.0744,0.0778,0.0813,0.083,0.0869,0.0919,0.1069,0.1171,0.1191,0.126,0.1271,0.1234,0.1293,0.1355,0.1303,0.127,0.1263,0.1383,0.1386,0.1388,0.139,0,0,0.0802,0.0769,0.0755,0.0743,0.0701,0.0715,0.071,0.0739,0.0749,0.0807,0.084,0.0945,0.1023,0.1084,0.1182,0.1207,0.115,0.1208,0.1212,0.1154,0.109,0.1114,0.1109,0.1156,0.1155,0.1155,0.1065,0,0.073,0.0652,0.0651,0.0606,0.0573,0.0606,0.0582,0.0631,0.0691,0.0756,0.0873,0.0951,0.0973,0.1053,0.1062,0.1134,0.1128,0.1164,0.1168,0.1168,0.1182,0.1103,0.1196,0.1127,0.1059,0.1058,0.1057,0,0.0627,0.0591,0.0528,0.0508,0.0498,0.0491,0.0515,0.0513,0.0613,0.0648,0.0745,0.0864,0.0947,0.0996,0.0998,0.0984,0.1014,0.105,0.105,0.1119,0.118,0.1183,0.1118,0.1276,0.1047,0.1048,0.1048,0,0.0556,0.0494,0.0446,0.0409,0.0407,0.0418,0.0427,0.0492,0.05,0.0639,0.0677,0.0773,0.0825,0.0862,0.0931,0.0951,0.0903,0.0983,0.1019,0.1019,0.1133,0.1145,0.122,0.0986,0.0986,0.0986,0.0987,0,0.0425,0.0398,0.0412,0.0384,0.0323,0.0359,0.035,0.0378,0.045,0.0465,0.0622,0.0654,0.0775,0.0807,0.0876,0.0873,0.0853,0.0977,0.1,0.1084,0.1093,0.127,0.1337,0.0983,0.0984,0.0985,0.0985,0,0.0386,0.0359,0.0319,0.0313,0.0298,0.0274,0.0278,0.0301,0.0325,0.0378,0.0431,0.0516,0.0539,0.0652,0.0725,0.0781,0.0944,0.0869,0.0929,0.0962,0.1191,0.1247,0.1284,0.1399,0.0908,0.0909,0.0909,0,0.0382,0.0343,0.0286,0.0241,0.0244,0.0213,0.0196,0.0228,0.0263,0.0282,0.031,0.0374,0.0433,0.0492,0.0661,0.0783,0.0918,0.0927,0.105,0.1187,0.1267,0.1287,0.1384,0.1121,0.1122,0.1124,0.1125,0,0.0374,0.0332,0.0285,0.0206,0.0179,0.0137,0.0135,0.013,0.0175,0.0203,0.0195,0.0262,0.0351,0.0553,0.0728,0.0815,0.1084,0.0962,0.1114,0.1432,0.1451,0.158,0.1153,0.1138,0.1137,0.1136,0.1135,0.1135,0.0352,0.0316,0.0246,0.0143,0.01,0.0074,0.0054,0.012,0.0141,0.0202,0.0138,0.0231,0.06,0.088,0.0909,0.1208,0.1178,0.1369,0.1412,0.1407,0.1571,0.1137,0.1158,0.1157,0.1156,0.1155,0.1154,0,0.0343,0.0262,0.0202,0.0105,0.0059,0.0052,0.0021,0.0051,0.0116,0.0216,0.0224,0.0588,0.0906,0.118,0.159,0.17,0.1736,0.1766,0.1861,0.1935,0.1571,0.1641,0.1759,0.1759,0.1758,0.1758,0.1758,0.1758,0.0377,0.0249,0.0214,0.0077,0.0025,0.0049,0.0016,0.0105,0.018,0.038,0.058,0.0693,0.125,0.1773,0.2102,0.2121,0.2302,0.2232,0.2309,0.2118,0.2087,0.2056,0.2142,0.2362,0.2363,0.2721,0.2724,0.2727]}],[{"header":{"parameterUnit":"m.s-1","parameterCategory":2,"la1":30.2991,"la2":30.254,"lo1":-89.0895,"lo2":-89.0444,"dy":0.0017,"dx":0.0017,"nx":28,"ny":28,"refTime":"2026-02-02T03:00:00:Z","depth":"2","parameterNumber":2,"parameterNumberName":"U-component_of_CURRENTS"},"data":[0,0,0,0,0,0,0,0,0,0,0,0,0,0,0,0,0,0,0,0,0,0,0,0,0,0,0,0,0,0,0,0,0,0,0,0,0,0,0,0,0,0,0,0,0,0,0,0,0,0,0,0,0,0,0,0,0,0,-0.2401,-0.2401,0,-0.2479,-0.248,-0.2481,-0.2534,-0.2534,-0.2534,-0.2534,-0.2655,-0.2658,-0.2661,0,0,0,0,0,0,0,0,0,0,0,0,0,-0.2407,-0.2406,-0.24,-0.2401,-0.2402,-0.2478,-0.248,-0.2481,-0.2534,-0.2534,-0.2534,-0.2534,-0.2654,-0.2657,-0.2661,0,0,0,0,0,0,0,0,0,0,0,0,0,-0.2441,-0.2406,-0.24,-0.2434,-0.2437,-0.2478,-0.248,-0.2482,-0.2534,-0.2534,-0.2534,-0.2534,-0.2652,-0.2657,-0.2662,-0.2693,0,0,-0.2677,-0.2679,0,0,0,0,0,0,0,0,-0.2438,-0.2441,-0.2428,-0.2432,-0.2435,-0.2493,-0.2526,-0.2553,-0.2534,-0.2502,-0.2534,-0.2534,-0.2602,-0.2611,-0.2631,-0.2698,-0.2704,-0.2677,-0.268,-0.2682,-0.2684,0,0,0,0,0,0,0,-0.2436,-0.2438,-0.2436,-0.2429,-0.2433,-0.2482,-0.2487,-0.2532,-0.2555,-0.2505,-0.2508,-0.2509,-0.2604,-0.2626,-0.2634,-0.2705,-0.2677,-0.2681,-0.2684,-0.2686,-0.2928,-0.2931,0,0,0,0,0,0,-0.2411,-0.2435,-0.2433,-0.2438,-0.2432,-0.2481,-0.2487,-0.2478,-0.2554,-0.2564,-0.2509,-0.2511,-0.2618,-0.2629,-0.2639,-0.2731,-0.2682,-0.2687,-0.269,-0.2924,-0.2928,-0.2932,0,0,0,0,0,0,-0.2411,-0.241,-0.243,-0.2436,-0.2441,-0.248,-0.2471,-0.2479,-0.2531,-0.2556,-0.2568,-0.2555,-0.2618,-0.2632,-0.2698,-0.2734,-0.2689,-0.2693,-0.292,-0.2925,-0.293,-0.2882,0,0,0,0,0,0,-0.2411,-0.2409,-0.2408,-0.2433,-0.244,-0.2466,-0.2471,-0.2481,-0.2528,-0.2533,-0.2599,-0.2608,-0.2619,-0.269,-0.2702,-0.2739,-0.2697,-0.2916,-0.2922,-0.2929,-0.2879,-0.2885,-0.2889,0,0,0,0,0,-0.2411,-0.2424,-0.2407,-0.2408,-0.2432,-0.2466,-0.2476,-0.2507,-0.253,-0.2555,-0.2599,-0.2607,-0.2742,-0.2696,-0.271,-0.2749,-0.2912,-0.292,-0.2928,-0.2876,-0.2883,-0.2889,0,0,0,0,0,0,-0.2426,-0.243,-0.2414,-0.2424,-0.2439,-0.2474,-0.2509,-0.2528,-0.2585,-0.2594,-0.2631,-0.2644,-0.2724,-0.2757,-0.2706,-0.2849,-0.2839,-0.285,-0.2795,-0.2802,-0.2807,-0.2783,-0.2701,0,0,0,0,0,-0.2422,-0.2437,-0.2435,-0.2446,-0.2457,-0.2487,-0.2512,-0.2521,-0.2565,-0.2592,-0.264,-0.2704,-0.2766,-0.2796,-0.2855,-0.2917,-0.2882,-0.2966,-0.2972,-0.2975,-0.2973,-0.2925,-0.2922,-0.2958,-0.2958,-0.2958,0,0,-0.244,-0.2435,-0.2449,-0.2451,-0.2474,-0.2506,-0.2506,-0.2542,-0.2577,-0.2596,-0.2684,-0.2724,-0.2792,-0.2859,-0.2901,-0.2888,-0.295,-0.2985,-0.2986,-0.2983,-0.2932,-0.2928,-0.2923,-0.2963,-0.2962,-0.2961,0,0,-0.2468,-0.247,-0.2484,-0.2508,-0.2519,-0.2537,-0.2553,-0.2592,-0.2621,-0.2687,-0.2718,-0.2758,-0.2882,-0.2897,-0.2932,-0.3009,-0.2983,-0.3073,-0.3065,-0.3018,-0.3011,-0.3006,-0.2938,-0.2926,-0.3067,-0.3067,-0.3067,0,-0.2476,-0.2481,-0.2498,-0.252,-0.2546,-0.2559,-0.2587,-0.2626,-0.2682,-0.2695,-0.272,-0.285,-0.289,-0.2943,-0.2977,-0.3011,-0.2984,-0.3016,-0.3013,-0.3007,-0.3002,-0.2934,-0.2921,-0.3066,-0.3066,-0.3066,-0.3066,0,-0.2499,-0.2523,-0.2548,-0.2572,-0.2611,-0.2638,-0.2675,-0.2716,-0.2755,-0.2767,-0.2833,-0.2872,-0.2935,-0.2973,-0.3002,-0.3015,-0.3006,-0.3016,-0.2967,-0.2993,-0.2923,-0.291,-0.3064,-0.3064,-0.3065,-0.3065,0,0,-0.2481,-0.2539,-0.2555,-0.2575,-0.2633,-0.2664,-0.2733,-0.2761,-0.2789,-0.2838,-0.2867,-0.2952,-0.2943,-0.2985,-0.3012,-0.2982,-0.291,-0.2994,-0.2992,-0.2875,-0.2793,-0.2682,-0.2657,-0.2916,-0.2914,-0.2913,-0.2748,0,-0.2484,-0.2508,-0.2559,-0.2634,-0.2656,-0.2715,-0.2776,-0.2812,-0.2846,-0.288,-0.2887,-0.2934,-0.296,-0.298,-0.2954,-0.2944,-0.2883,-0.2953,-0.2834,-0.283,-0.2682,-0.2641,-0.2477,-0.2308,-0.2736,-0.2734,-0.2732,0,-0.2499,-0.2503,-0.2543,-0.2632,-0.2653,-0.2714,-0.2789,-0.2834,-0.2871,-0.2894,-0.291,-0.2929,-0.2921,-0.2933,-0.2859,-0.291,-0.2849,-0.2815,-0.2807,-0.271,-0.2695,-0.2364,-0.2269,-0.2711,-0.2713,-0.2715,-0.2716,0,-0.2451,-0.2526,-0.2544,-0.2578,-0.2662,-0.2713,-0.2765,-0.2826,-0.2849,-0.2885,-0.2896,-0.2894,-0.2897,-0.2834,-0.2785,-0.2821,-0.2675,-0.2701,-0.2523,-0.2514,-0.2353,-0.2332,-0.2598,-0.2599,-0.2599,-0.2599,-0.26,0,-0.2437,-0.2465,-0.2529,-0.2542,-0.2588,-0.2679,-0.2724,-0.2781,-0.283,-0.2841,-0.2885,-0.2892,-0.2877,-0.2813,-0.2752,-0.2588,-0.263,-0.2494,-0.2455,-0.2335,-0.2315,-0.267,-0.2681,-0.2593,-0.2595,-0.2596,-0.2597,0,-0.2394,-0.2422,-0.2458,-0.2538,-0.2566,-0.2605,-0.2694,-0.2708,-0.2781,-0.2801,-0.2813,-0.2864,-0.278,-0.2715,-0.2603,-0.2526,-0.2392,-0.2315,-0.2166,-0.2113,-0.2268,-0.2279,-0.2086,-0.2081,-0.2076,-0.2072,-0.2069,0,-0.2365,-0.2366,-0.2441,-0.2441,-0.2482,-0.2535,-0.2557,-0.266,-0.2675,-0.2778,-0.277,-0.2744,-0.2707,-0.2491,-0.2299,-0.2091,-0.2225,-0.1852,-0.1881,-0.2228,-0.2211,-0.223,-0.2247,-0.1643,-0.1637,-0.1632,-0.1627,0,-0.2288,-0.2322,-0.234,-0.2338,-0.2371,-0.2396,-0.2448,-0.246,-0.2574,-0.2601,-0.2633,-0.2631,-0.2459,-0.219,-0.1939,-0.1808,-0.1877,-0.1735,-0.2103,-0.1813,-0.18,-0.1788,-0.1821,-0.158,-0.1585,-0.1588,-0.1591,-0.1593,-0.2241,-0.2225,-0.2229,-0.2229,-0.2243,-0.2232,-0.2202,-0.2255,-0.2262,-0.2266,-0.2414,-0.2318,-0.2264,-0.1766,-0.1581,-0.1362,-0.15,-0.144,-0.146,-0.1485,-0.1478,-0.1459,-0.1171,-0.1173,-0.1175,-0.1177,-0.1179,0,-0.216,-0.2118,-0.2097,-0.207,-0.2014,-0.2083,-0.2088,-0.2019,-0.1964,-0.2018,-0.202,-0.1777,-0.1582,-0.1474,-0.1057,-0.0954,-0.0972,-0.0915,-0.0981,-0.1026,-0.1067,-0.1044,-0.0619,-0.0618,-0.0616,-0.0615,0,0,-0.21,-0.201,-0.1976,-0.1831,-0.1814,-0.1683,-0.166,-0.1597,-0.1586,-0.1491,-0.1423,-0.156,-0.1529,-0.1142,-0.0999,-0.0766,-0.0912,-0.0702,-0.1152,-0.1285,-0.1326,-0.1357,-0.137,0,0,0,0,0]},{"header":{"parameterUnit":"m.s-1","parameterCategory":2,"la1":30.2991,"la2":30.254,"lo1":-89.0895,"lo2":-89.0444,"dy":0.0017,"dx":0.0017,"nx":28,"ny":28,"refTime":"2026-02-02T03:00:00:Z","depth":"2","parameterNumber":3,"parameterNumberName":"V-component_of_CURRENTS"},"data":[0,0,0,0,0,0,0,0,0,0,0,0,0,0,0,0,0,0,0,0,0,0,0,0,0,0,0,0,0,0,0,0,0,0,0,0,0,0,0,0,0,0,0,0,0,0,0,0,0,0,0,0,0,0,0,0,0,0,-0.0738,-0.0738,0,-0.0684,-0.0683,-0.0683,-0.0666,-0.0666,-0.0666,-0.0667,-0.055,-0.0547,-0.0544,0,0,0,0,0,0,0,0,0,0,0,0,0,-0.0801,-0.08,-0.0738,-0.0738,-0.0737,-0.0684,-0.0683,-0.0683,-0.0666,-0.0666,-0.0666,-0.0667,-0.0552,-0.0548,-0.0544,0,0,0,0,0,0,0,0,0,0,0,0,0,-0.0763,-0.0799,-0.0739,-0.0722,-0.072,-0.0684,-0.0683,-0.0682,-0.0666,-0.0666,-0.0666,-0.0667,-0.0553,-0.0548,-0.0543,-0.0506,0,0,-0.0528,-0.0526,0,0,0,0,0,0,0,0,-0.0765,-0.0761,-0.0725,-0.0723,-0.072,-0.0682,-0.0663,-0.062,-0.0666,-0.0687,-0.0667,-0.0667,-0.0588,-0.058,-0.0571,-0.0501,-0.0496,-0.0528,-0.0525,-0.0523,-0.0521,0,0,0,0,0,0,0,-0.0768,-0.0763,-0.0717,-0.0724,-0.0721,-0.0708,-0.0703,-0.0655,-0.0636,-0.0685,-0.0684,-0.0676,-0.0586,-0.0576,-0.0568,-0.0494,-0.0528,-0.0523,-0.052,-0.0518,-0.0348,-0.0346,0,0,0,0,0,0,-0.0774,-0.0766,-0.0719,-0.0716,-0.0744,-0.0706,-0.0701,-0.0694,-0.0637,-0.0629,-0.0676,-0.0676,-0.0584,-0.0574,-0.0564,-0.051,-0.0523,-0.0518,-0.0515,-0.0349,-0.0347,-0.0346,0,0,0,0,0,0,-0.0776,-0.0771,-0.0721,-0.0739,-0.0732,-0.0705,-0.0697,-0.0693,-0.0683,-0.0631,-0.0622,-0.0671,-0.0584,-0.0571,-0.0536,-0.0506,-0.0516,-0.0511,-0.0351,-0.0349,-0.0347,-0.0407,0,0,0,0,0,0,-0.0778,-0.0772,-0.0778,-0.0739,-0.0731,-0.071,-0.0697,-0.0692,-0.0677,-0.0676,-0.0623,-0.0613,-0.0583,-0.0544,-0.0531,-0.0499,-0.0507,-0.0353,-0.035,-0.0347,-0.0407,-0.0406,-0.0406,0,0,0,0,0,-0.078,-0.0784,-0.0779,-0.0773,-0.0737,-0.071,-0.0705,-0.0687,-0.0677,-0.0678,-0.0647,-0.0615,-0.0514,-0.054,-0.0525,-0.0491,-0.0355,-0.0351,-0.0348,-0.0407,-0.0407,-0.0406,0,0,0,0,0,0,-0.081,-0.0782,-0.0775,-0.0769,-0.0747,-0.0708,-0.0707,-0.0687,-0.0663,-0.0662,-0.0613,-0.0601,-0.0549,-0.0511,-0.054,-0.0428,-0.042,-0.0413,-0.0469,-0.0469,-0.0469,-0.0489,-0.0503,0,0,0,0,0,-0.082,-0.0819,-0.0786,-0.0782,-0.0773,-0.0739,-0.0728,-0.0713,-0.0682,-0.0672,-0.0635,-0.0581,-0.052,-0.0494,-0.0442,-0.0395,-0.0348,-0.0353,-0.0354,-0.0354,-0.0357,-0.0273,-0.0266,-0.0334,-0.0334,-0.0334,0,0,-0.083,-0.0815,-0.0814,-0.0789,-0.077,-0.0765,-0.0734,-0.0718,-0.0707,-0.066,-0.0639,-0.0583,-0.0507,-0.0455,-0.0425,-0.0424,-0.0308,-0.035,-0.0351,-0.0353,-0.0268,-0.0262,-0.0256,-0.0332,-0.0332,-0.0333,0,0,-0.0849,-0.0835,-0.0844,-0.0832,-0.081,-0.0786,-0.0782,-0.0746,-0.0725,-0.0697,-0.0645,-0.0596,-0.0512,-0.0461,-0.0418,-0.0384,-0.031,-0.0335,-0.0356,-0.0274,-0.0269,-0.0263,-0.0197,-0.0186,-0.0338,-0.0338,-0.0338,0,-0.0864,-0.0869,-0.0841,-0.0849,-0.0847,-0.0797,-0.0808,-0.0772,-0.073,-0.0702,-0.07,-0.0561,-0.0519,-0.0426,-0.0418,-0.0388,-0.0322,-0.0371,-0.0278,-0.0271,-0.0265,-0.0198,-0.0184,-0.034,-0.034,-0.034,-0.0339,0,-0.0893,-0.09,-0.0902,-0.0898,-0.0892,-0.0888,-0.0845,-0.0819,-0.0785,-0.0742,-0.0656,-0.0595,-0.0515,-0.0474,-0.0442,-0.0348,-0.031,-0.0291,-0.029,-0.0262,-0.0193,-0.0177,-0.0344,-0.0343,-0.0342,-0.0341,0,0,-0.0918,-0.0923,-0.0926,-0.0942,-0.0921,-0.0918,-0.0888,-0.0839,-0.0807,-0.0745,-0.0694,-0.0594,-0.0547,-0.0494,-0.0425,-0.0355,-0.0272,-0.0304,-0.0298,-0.026,-0.0079,-0.0042,-0.0021,-0.022,-0.0217,-0.0215,-0.0051,0,-0.095,-0.0985,-0.0974,-0.1003,-0.1018,-0.0974,-0.0952,-0.0901,-0.0838,-0.0775,-0.067,-0.0597,-0.0551,-0.0508,-0.0431,-0.0303,-0.0231,-0.0318,-0.0092,-0.0086,-0.0074,-0.0003,-0.0024,0.0123,-0.0036,-0.0034,-0.0032,0,-0.0995,-0.1007,-0.1052,-0.106,-0.1062,-0.1069,-0.1025,-0.0996,-0.088,-0.0828,-0.0726,-0.0635,-0.0514,-0.0492,-0.027,-0.0314,-0.0207,-0.0114,-0.0105,-0.004,-0.002,0.0075,0.0157,-0.0006,-0.0008,-0.001,-0.0011,0,-0.1052,-0.1068,-0.111,-0.1117,-0.111,-0.1113,-0.1096,-0.1013,-0.0979,-0.0853,-0.0805,-0.0643,-0.0552,-0.0396,-0.0208,-0.0225,0.004,0.0031,0.0168,0.0171,0.0211,0.0213,0.0181,0.0181,0.0181,0.018,0.018,0,-0.1114,-0.1142,-0.114,-0.117,-0.1203,-0.1174,-0.1174,-0.1125,-0.1037,-0.0986,-0.0839,-0.0741,-0.0516,-0.0336,-0.0193,0.005,0.0054,0.0184,0.0228,0.019,0.019,0.0119,0.0109,0.0186,0.0185,0.0184,0.0183,0,-0.1192,-0.1191,-0.1241,-0.1242,-0.1246,-0.1275,-0.1255,-0.1234,-0.1137,-0.1064,-0.1023,-0.0788,-0.0527,-0.0302,-0.0023,0.0081,0.0287,0.0366,0.0302,0.0335,0.0354,0.0339,0.0528,0.0531,0.0533,0.0535,0.0537,0,-0.1239,-0.127,-0.1312,-0.1344,-0.1355,-0.1373,-0.1379,-0.1307,-0.1274,-0.1081,-0.1045,-0.0761,-0.052,-0.0091,0.0145,0.0425,0.0407,0.0536,0.0484,0.0372,0.0395,0.0377,0.036,0.0515,0.0516,0.0518,0.0518,0,-0.1313,-0.1331,-0.137,-0.1433,-0.1469,-0.1498,-0.149,-0.1483,-0.1368,-0.1261,-0.1049,-0.0826,-0.0369,-0.001,0.0357,0.0495,0.0484,0.0568,0.0511,0.0419,0.0371,0.0389,0.0371,0.0529,0.0528,0.0527,0.0526,0.0526,-0.1366,-0.1411,-0.1456,-0.1512,-0.156,-0.16,-0.1609,-0.1559,-0.1489,-0.1279,-0.1062,-0.0654,-0.0333,0.0259,0.0459,0.0635,0.0627,0.0653,0.0645,0.0637,0.0595,0.0553,0.0737,0.0737,0.0737,0.0737,0.0737,0,-0.1414,-0.1456,-0.1517,-0.1588,-0.1644,-0.1652,-0.1659,-0.1613,-0.1519,-0.1225,-0.0958,-0.0498,-0.0062,0.0281,0.0577,0.0725,0.0682,0.074,0.0651,0.0641,0.0633,0.0585,0.0728,0.0728,0.0728,0.0728,0,0,-0.1445,-0.1503,-0.1522,-0.1624,-0.1678,-0.1717,-0.1723,-0.1626,-0.141,-0.1102,-0.0759,-0.036,0.0065,0.025,0.0441,0.0609,0.0573,0.0612,0.0607,0.047,0.0459,0.0578,0.0495,0,0,0,0,0]}],[{"header":{"parameterUnit":"m.s-1","parameterCategory":2,"la1":30.2991,"la2":30.254,"lo1":-89.0895,"lo2":-89.0444,"dy":0.0017,"dx":0.0017,"nx":28,"ny":28,"refTime":"2026-02-02T03:00:00:Z","depth":"4","parameterNumber":2,"parameterNumberName":"U-component_of_CURRENTS"},"data":[0,0,0,0,0,0,0,0,0,0,0,0,0,0,0,0,0,0,0,0,0,0,0,0,0,0,0,0,0,0,0,0,0,0,0,0,0,0,0,0,0,0,0,0,0,0,0,0,0,0,0,0,0,0,0,0,0,0,-0.1546,-0.1547,0,-0.1624,-0.1625,-0.1625,-0.1674,-0.1675,-0.1675,-0.1675,-0.1773,-0.1776,-0.1778,0,0,0,0,0,0,0,0,0,0,0,0,0,-0.1451,-0.1453,-0.1546,-0.1547,-0.1548,-0.1624,-0.1625,-0.1626,-0.1674,-0.1675,-0.1675,-0.1675,-0.1773,-0.1775,-0.1778,0,0,0,0,0,0,0,0,0,0,0,0,0,-0.1507,-0.1453,-0.1545,-0.1581,-0.1585,-0.1623,-0.1625,-0.1626,-0.1674,-0.1675,-0.1675,-0.1675,-0.1772,-0.1775,-0.1779,-0.1792,0,0,-0.179,-0.1791,0,0,0,0,0,0,0,0,-0.1504,-0.151,-0.1575,-0.1579,-0.1583,-0.164,-0.1628,-0.1683,-0.1674,-0.164,-0.1675,-0.1676,-0.173,-0.1737,-0.1751,-0.1797,-0.1801,-0.179,-0.1792,-0.1793,-0.1794,0,0,0,0,0,0,0,-0.15,-0.1507,-0.1577,-0.1576,-0.1581,-0.1597,-0.1606,-0.1638,-0.1682,-0.1643,-0.1647,-0.1656,-0.1733,-0.1747,-0.1753,-0.1803,-0.179,-0.1793,-0.1795,-0.1796,-0.1926,-0.1928,0,0,0,0,0,0,-0.1489,-0.1504,-0.1574,-0.1579,-0.1544,-0.1599,-0.1608,-0.1621,-0.1682,-0.1691,-0.1655,-0.1658,-0.1741,-0.1749,-0.1757,-0.1847,-0.1793,-0.1797,-0.1799,-0.1925,-0.1927,-0.1928,0,0,0,0,0,0,-0.1487,-0.1495,-0.1571,-0.1543,-0.1554,-0.16,-0.1614,-0.1622,-0.1665,-0.1691,-0.1701,-0.1693,-0.1742,-0.1752,-0.1813,-0.1849,-0.1798,-0.1802,-0.1924,-0.1926,-0.1927,-0.1983,0,0,0,0,0,0,-0.1484,-0.1494,-0.1513,-0.1542,-0.1555,-0.1613,-0.1614,-0.1624,-0.1668,-0.1673,-0.1726,-0.1733,-0.1743,-0.1808,-0.1817,-0.1853,-0.1804,-0.1922,-0.1924,-0.1927,-0.1979,-0.1986,-0.1992,0,0,0,0,0,-0.1481,-0.1504,-0.1513,-0.1523,-0.1575,-0.1614,-0.1623,-0.1656,-0.167,-0.1695,-0.1732,-0.1733,-0.1829,-0.1812,-0.1822,-0.186,-0.1921,-0.1924,-0.1927,-0.1976,-0.1985,-0.1992,0,0,0,0,0,0,-0.1481,-0.1511,-0.1523,-0.1557,-0.1591,-0.1623,-0.1655,-0.1673,-0.1723,-0.1737,-0.1757,-0.1768,-0.183,-0.1838,-0.1818,-0.1903,-0.1873,-0.1878,-0.1907,-0.1916,-0.1922,-0.1916,-0.1807,0,0,0,0,0,-0.1486,-0.1508,-0.1541,-0.1571,-0.1593,-0.1629,-0.1654,-0.1677,-0.1716,-0.1739,-0.1777,-0.1814,-0.1845,-0.1876,-0.1903,-0.1958,-0.1941,-0.1986,-0.1993,-0.1998,-0.1999,-0.2009,-0.2016,-0.1938,-0.1938,-0.1938,0,0,-0.1497,-0.1514,-0.1531,-0.1573,-0.1605,-0.1643,-0.1647,-0.1696,-0.1728,-0.1742,-0.1814,-0.1842,-0.1864,-0.1921,-0.1949,-0.1938,-0.2009,-0.2002,-0.2007,-0.2005,-0.2013,-0.202,-0.2027,-0.194,-0.194,-0.1939,0,0,-0.1514,-0.1547,-0.1568,-0.1603,-0.165,-0.1672,-0.1692,-0.1745,-0.1774,-0.1834,-0.185,-0.1902,-0.196,-0.1984,-0.1999,-0.206,-0.204,-0.2073,-0.2112,-0.2122,-0.2128,-0.2133,-0.2107,-0.211,-0.2082,-0.2082,-0.2082,0,-0.1525,-0.1556,-0.1583,-0.1617,-0.1651,-0.1689,-0.1728,-0.1762,-0.1828,-0.1857,-0.1865,-0.1958,-0.1984,-0.2042,-0.2066,-0.2076,-0.2065,-0.2081,-0.213,-0.2135,-0.2139,-0.2111,-0.2113,-0.2085,-0.2085,-0.2084,-0.2084,0,-0.1553,-0.1593,-0.1616,-0.1664,-0.1705,-0.175,-0.1795,-0.1844,-0.1882,-0.1913,-0.1988,-0.2025,-0.2079,-0.2098,-0.2105,-0.216,-0.2135,-0.2132,-0.2107,-0.215,-0.2118,-0.2119,-0.2089,-0.2088,-0.2087,-0.2086,0,0,-0.1535,-0.1616,-0.1628,-0.166,-0.1737,-0.1769,-0.1832,-0.1891,-0.1939,-0.1998,-0.2055,-0.2117,-0.2145,-0.2163,-0.2185,-0.2203,-0.2227,-0.2191,-0.219,-0.216,-0.2227,-0.205,-0.2034,-0.2238,-0.2239,-0.224,-0.2186,0,-0.1549,-0.1609,-0.1652,-0.1723,-0.176,-0.1824,-0.188,-0.1942,-0.1995,-0.2062,-0.21,-0.2164,-0.2165,-0.2206,-0.2226,-0.2234,-0.2235,-0.224,-0.2193,-0.2191,-0.2026,-0.2032,-0.2243,-0.2186,-0.2187,-0.2187,-0.2187,0,-0.1555,-0.1594,-0.1661,-0.175,-0.1776,-0.1828,-0.1926,-0.1981,-0.2071,-0.2118,-0.2183,-0.2217,-0.2269,-0.2259,-0.2274,-0.228,-0.2257,-0.2248,-0.2245,-0.2061,-0.2017,-0.2138,-0.2188,-0.2188,-0.2188,-0.2188,-0.2188,0,-0.1503,-0.1599,-0.165,-0.1686,-0.1792,-0.184,-0.1901,-0.2,-0.2051,-0.2156,-0.2205,-0.2265,-0.23,-0.2296,-0.2273,-0.2287,-0.2259,-0.227,-0.208,-0.2067,-0.2219,-0.2214,-0.2262,-0.2262,-0.2262,-0.2262,-0.2263,0,-0.1479,-0.1524,-0.1637,-0.1663,-0.1733,-0.1823,-0.1905,-0.1978,-0.2084,-0.2136,-0.223,-0.2267,-0.2315,-0.2306,-0.2279,-0.2159,-0.2256,-0.2071,-0.204,-0.2241,-0.224,-0.2218,-0.2214,-0.226,-0.2261,-0.2261,-0.2262,0,-0.1402,-0.1481,-0.1541,-0.1663,-0.1706,-0.1755,-0.1888,-0.1939,-0.2061,-0.213,-0.2164,-0.2269,-0.2248,-0.2242,-0.2224,-0.2139,-0.2064,-0.1996,-0.2183,-0.2166,-0.1866,-0.1866,-0.1783,-0.1776,-0.1771,-0.1766,-0.1762,0,-0.1368,-0.139,-0.1519,-0.1554,-0.161,-0.1703,-0.176,-0.1903,-0.195,-0.2105,-0.2113,-0.2159,-0.2192,-0.2011,-0.2038,-0.1928,-0.1904,-0.1851,-0.1882,-0.1838,-0.1817,-0.1826,-0.1833,-0.1753,-0.1752,-0.175,-0.1749,0,-0.1289,-0.1343,-0.1388,-0.146,-0.1526,-0.1594,-0.1684,-0.1707,-0.1857,-0.1988,-0.1997,-0.1979,-0.1941,-0.19,-0.1807,-0.1747,-0.1883,-0.1792,-0.1804,-0.1833,-0.1801,-0.1788,-0.1801,-0.1729,-0.1732,-0.1734,-0.1735,0,-0.1232,-0.1238,-0.13,-0.1351,-0.1419,-0.1445,-0.1521,-0.157,-0.1637,-0.1806,-0.1803,-0.1852,-0.1931,-0.1804,-0.1735,-0.1635,-0.1615,-0.1565,-0.1589,-0.1611,-0.1574,-0.151,-0.1306,0,0,0,0,0,-0.1173,-0.1159,-0.1189,-0.1224,-0.1277,-0.1319,-0.1446,-0.1528,-0.1673,-0.1622,-0.1707,-0.1665,-0.1588,-0.1626,-0.1477,-0.1628,-0.1604,-0.1449,-0.1557,-0.162,-0.1643,-0.1612,0,0,0,0,0,0,-0.1125,-0.1144,-0.1145,-0.1099,-0.109,-0.1139,-0.1212,-0.1323,-0.1311,-0.1464,-0.1427,-0.1536,-0.1476,-0.1617,-0.1431,-0.1429,-0.1456,-0.1478,-0.1472,-0.1607,-0.1628,-0.1646,-0.1622,0,0,0,0,0]},{"header":{"parameterUnit":"m.s-1","parameterCategory":2,"la1":30.2991,"la2":30.254,"lo1":-89.0895,"lo2":-89.0444,"dy":0.0017,"dx":0.0017,"nx":28,"ny":28,"refTime":"2026-02-02T03:00:00:Z","depth":"4","parameterNumber":3,"parameterNumberName":"V-component_of_CURRENTS"},"data":[0,0,0,0,0,0,0,0,0,0,0,0,0,0,0,0,0,0,0,0,0,0,0,0,0,0,0,0,0,0,0,0,0,0,0,0,0,0,0,0,0,0,0,0,0,0,0,0,0,0,0,0,0,0,0,0,0,0,-0.0528,-0.0527,0,-0.0513,-0.0513,-0.0513,-0.0527,-0.0528,-0.0528,-0.0529,-0.0492,-0.049,-0.0489,0,0,0,0,0,0,0,0,0,0,0,0,0,-0.0543,-0.0543,-0.0528,-0.0527,-0.0527,-0.0513,-0.0513,-0.0513,-0.0527,-0.0528,-0.0529,-0.0529,-0.0492,-0.049,-0.0489,0,0,0,0,0,0,0,0,0,0,0,0,0,-0.0534,-0.0543,-0.0528,-0.0532,-0.0532,-0.0513,-0.0513,-0.0513,-0.0527,-0.0528,-0.0529,-0.0529,-0.0493,-0.0491,-0.0489,-0.0462,0,0,-0.0482,-0.0481,0,0,0,0,0,0,0,0,-0.0535,-0.0534,-0.0531,-0.0531,-0.0532,-0.0522,-0.0505,-0.0494,-0.0527,-0.053,-0.0529,-0.053,-0.0498,-0.0496,-0.0494,-0.046,-0.0458,-0.0482,-0.0481,-0.048,-0.0479,0,0,0,0,0,0,0,-0.0535,-0.0534,-0.0523,-0.0531,-0.0531,-0.0526,-0.0526,-0.0503,-0.0511,-0.053,-0.0531,-0.0527,-0.0499,-0.0496,-0.0493,-0.0458,-0.0482,-0.048,-0.0479,-0.0478,-0.0429,-0.0429,0,0,0,0,0,0,-0.0535,-0.0535,-0.0524,-0.0523,-0.0534,-0.0525,-0.0525,-0.0525,-0.0512,-0.051,-0.0526,-0.0528,-0.0499,-0.0495,-0.0491,-0.0492,-0.048,-0.0478,-0.0476,-0.0429,-0.0429,-0.0429,0,0,0,0,0,0,-0.0536,-0.0535,-0.0524,-0.0527,-0.0526,-0.0524,-0.0524,-0.0525,-0.0532,-0.0509,-0.0508,-0.0535,-0.0499,-0.0494,-0.0487,-0.0489,-0.0477,-0.0475,-0.043,-0.0429,-0.0429,-0.0471,0,0,0,0,0,0,-0.0536,-0.0535,-0.0546,-0.0527,-0.0525,-0.0527,-0.0523,-0.0524,-0.0528,-0.0529,-0.0515,-0.0512,-0.0499,-0.049,-0.0485,-0.0486,-0.0473,-0.043,-0.0429,-0.0429,-0.047,-0.0472,-0.0475,0,0,0,0,0,-0.0537,-0.0546,-0.0547,-0.0546,-0.0537,-0.0527,-0.0526,-0.0528,-0.0527,-0.0536,-0.0527,-0.0513,-0.0486,-0.0489,-0.0482,-0.0483,-0.043,-0.043,-0.0429,-0.0469,-0.0472,-0.0475,0,0,0,0,0,0,-0.0558,-0.0548,-0.0548,-0.0555,-0.0548,-0.053,-0.0537,-0.0532,-0.0531,-0.0536,-0.0514,-0.051,-0.0503,-0.0485,-0.0489,-0.0468,-0.0454,-0.0453,-0.0486,-0.0489,-0.0492,-0.0496,-0.0471,0,0,0,0,0,-0.0566,-0.0573,-0.0559,-0.0565,-0.0564,-0.0551,-0.055,-0.0549,-0.0539,-0.054,-0.0529,-0.0513,-0.0495,-0.0488,-0.0472,-0.046,-0.0407,-0.0455,-0.0457,-0.046,-0.0459,-0.0379,-0.0374,-0.0429,-0.0429,-0.0429,0,0,-0.0573,-0.0571,-0.0573,-0.057,-0.0566,-0.0573,-0.0554,-0.0555,-0.0561,-0.0534,-0.0544,-0.0522,-0.0493,-0.0485,-0.048,-0.0473,-0.0414,-0.046,-0.0462,-0.0459,-0.0378,-0.0373,-0.0368,-0.0429,-0.0429,-0.0429,0,0,-0.0589,-0.059,-0.0603,-0.0604,-0.0603,-0.0593,-0.0596,-0.0584,-0.0584,-0.0583,-0.0562,-0.0546,-0.0525,-0.0504,-0.0489,-0.0493,-0.043,-0.0485,-0.0502,-0.0425,-0.0419,-0.0414,-0.0329,-0.0316,-0.0487,-0.0487,-0.0487,0,-0.0602,-0.0617,-0.0604,-0.0621,-0.0629,-0.0606,-0.0624,-0.0614,-0.0603,-0.0595,-0.0596,-0.0549,-0.0534,-0.0503,-0.0511,-0.0499,-0.0437,-0.0495,-0.0427,-0.0421,-0.0415,-0.0329,-0.0314,-0.0489,-0.0488,-0.0488,-0.0488,0,-0.0628,-0.0647,-0.0653,-0.067,-0.0675,-0.0685,-0.0671,-0.0672,-0.0664,-0.0645,-0.0618,-0.0588,-0.0557,-0.0548,-0.0535,-0.0484,-0.0447,-0.0439,-0.042,-0.0411,-0.0322,-0.0305,-0.0491,-0.0491,-0.049,-0.049,0,0,-0.0641,-0.0668,-0.0674,-0.0698,-0.0706,-0.0713,-0.0719,-0.071,-0.0707,-0.0681,-0.0662,-0.063,-0.0597,-0.0577,-0.0544,-0.0485,-0.0394,-0.0448,-0.0443,-0.0364,-0.0203,-0.022,-0.0203,-0.0365,-0.0363,-0.0361,-0.0155,0,-0.0669,-0.0715,-0.0718,-0.0762,-0.0785,-0.0776,-0.0787,-0.0775,-0.0749,-0.0722,-0.0663,-0.0632,-0.0609,-0.059,-0.0527,-0.0428,-0.0353,-0.045,-0.0223,-0.0216,-0.0232,-0.0186,-0.0354,-0.0142,-0.0138,-0.0135,-0.0133,0,-0.07,-0.0727,-0.0781,-0.0819,-0.0828,-0.0852,-0.0861,-0.0863,-0.0809,-0.0785,-0.0726,-0.0667,-0.058,-0.0564,-0.037,-0.0427,-0.032,-0.0239,-0.0228,-0.022,-0.0203,-0.0153,-0.0102,-0.0105,-0.0107,-0.0109,-0.0111,0,-0.0727,-0.0772,-0.0822,-0.0838,-0.0872,-0.0897,-0.0909,-0.0885,-0.0883,-0.0811,-0.0782,-0.0666,-0.0596,-0.0455,-0.0291,-0.0317,-0.0062,-0.0077,0.0018,0.0019,-0.001,-0.0018,0.0073,0.0072,0.0072,0.0071,0.0071,0,-0.076,-0.08,-0.0844,-0.0875,-0.0935,-0.094,-0.0978,-0.0967,-0.0933,-0.0913,-0.0812,-0.0743,-0.0561,-0.0398,-0.0266,-0.0062,-0.003,0.0033,0.0074,-0.0031,-0.0044,0.0004,-0.0007,0.0079,0.0077,0.0076,0.0074,0,-0.0785,-0.0816,-0.0879,-0.0931,-0.0957,-0.1,-0.1043,-0.1053,-0.1008,-0.0971,-0.0944,-0.0771,-0.0544,-0.035,-0.0093,-0.0025,0.016,0.0226,0.0123,0.0152,0.0185,0.017,0.0348,0.0349,0.035,0.0351,0.0352,0,-0.08,-0.0835,-0.0927,-0.0978,-0.1012,-0.1071,-0.1112,-0.1103,-0.1098,-0.0978,-0.0949,-0.0721,-0.0586,-0.0207,-0.0031,0.0247,0.0262,0.0339,0.0232,0.0193,0.0216,0.0198,0.0182,0.0353,0.0354,0.0354,0.0354,0,-0.0824,-0.0865,-0.0914,-0.1016,-0.1086,-0.1153,-0.1194,-0.1194,-0.1152,-0.1108,-0.0911,-0.0713,-0.0446,-0.0182,0.0047,0.0226,0.0268,0.0349,0.0347,0.0248,0.0202,0.0219,0.0202,0.0358,0.0357,0.0357,0.0357,0,-0.0839,-0.0882,-0.0956,-0.1036,-0.1133,-0.1199,-0.1223,-0.1182,-0.1161,-0.1022,-0.0946,-0.0659,-0.0485,-0.0187,0.0015,0.0199,0.0213,0.0206,0.0211,0.0209,0.0079,-0.0006,0.014,0,0,0,0,0,-0.0846,-0.0893,-0.0971,-0.1066,-0.1156,-0.121,-0.1259,-0.1261,-0.1212,-0.1077,-0.1009,-0.0753,-0.0411,-0.0244,-0.0056,-0.001,0.021,0.0204,0.0195,0.0377,0.0373,0.0238,0,0,0,0,0,0,-0.0857,-0.0932,-0.0962,-0.1062,-0.1128,-0.1223,-0.1259,-0.1233,-0.1142,-0.1057,-0.0845,-0.0748,-0.0388,-0.0488,-0.005,0.0004,0.0005,0.0376,0.0378,0.0379,0.0375,0.0372,0.0232,0,0,0,0,0]}]]